Hagerstown, MD

8:56 AM EDT on October 21, 2017 (GMT -0400)
Hagerstown Regional-Henson

Weather History for KHGR - April, 2014

Change the Weather History Date:

Saturday, April 12, 2014

  Actual Average Record
Temperature  
Mean Temperature 58 °F 52 °F  
Max Temperature 72 °F 62 °F 76 °F (2008)
Min Temperature 43 °F 42 °F 33 °F (2009)
Degree Days  
Heating Degree Days 7 14  
Month to date heating degree days 163 188  
Since 1 July heating degree days 5037 4820  
Cooling Degree Days 0 0  
Month to date cooling degree days 0 0  
Year to date cooling degree days 0 1  
Growing Degree Days 10 (Base 50)    
Moisture  
Dew Point 40 °F    
Average Humidity 56    
Maximum Humidity 93    
Minimum Humidity 19    
Precipitation  
Precipitation 0.00 in 0.12 in 1.18 in (2004)
Month to date precipitation 0.50 1.52  
Year to date precipitation 5.95 10.13  
Sea Level Pressure  
Sea Level Pressure 30.17 in    
Wind  
Wind Speed 5 mph (South)    
Max Wind Speed 16 mph    
Max Gust Speed 21 mph    
Visibility 8 miles    
Events      
T = Trace of Precipitation, MM = Missing Value Source: NWS Daily Summary

Daily Weather History Graph

Daily Weather History Graph

Search for Another Location

Airport or City:

Trip Planner

Search our weather history database for the weather conditions in past years. The results will help you decide how hot, cold, wet, or windy it might be!

Date:

Astronomy

Apr. 12, 2014 Rise Set
Actual Time 6:37 AM EDT 7:46 PM EDT
Civil Twilight 6:10 AM EDT 8:13 PM EDT
Nautical Twilight 5:37 AM EDT 8:46 PM EDT
Astronomical Twilight 5:02 AM EDT 9:21 PM EDT
Moon 5:22 PM EDT (4/12) 5:03 AM EDT (4/12)
Length of Visible Light 14h 03m
Length of Day
13h 08m
Waxing Gibbous, 93% of the Moon is Illuminated
Apr 12
Waxing Gibbous
Apr 15
Full
Apr 22
Last Quarter
Apr 29
New
May 6
First Quarter

Hourly Weather History & Observations

Time (EDT) Temp. Dew Point Humidity Pressure Visibility Wind Dir Wind Speed Gust Speed Precip Events Conditions
12:33 AM 52.0 °F 51.1 °F 97% 30.06 in 2.5 mi Calm Calm - N/A   Clear
12:40 AM 53.1 °F 52.0 °F 96% 30.06 in 5.0 mi Calm Calm - N/A   Clear
12:53 AM 53.1 °F 51.1 °F 93% 30.09 in 5.0 mi Calm Calm - N/A   Clear
1:53 AM 54.0 °F 52.0 °F 93% 30.10 in 6.0 mi West 3.5 mph - N/A   Mostly Cloudy
2:19 AM 53.1 °F 50.0 °F 89% 30.08 in 1.8 mi WNW 4.6 mph - N/A   Mostly Cloudy
2:29 AM 50.0 °F 48.9 °F 96% 30.09 in 3.0 mi WNW 3.5 mph - N/A   Mostly Cloudy
2:53 AM 51.1 °F 48.0 °F 89% 30.12 in 8.0 mi WNW 4.6 mph - N/A   Clear
3:53 AM 51.1 °F 46.9 °F 86% 30.15 in 8.0 mi Calm Calm - N/A   Clear
4:53 AM 52.0 °F 44.1 °F 74% 30.17 in 10.0 mi NNW 4.6 mph - N/A   Clear
5:53 AM 50.0 °F 43.0 °F 77% 30.20 in 10.0 mi NNW 5.8 mph - N/A   Clear
6:53 AM 48.0 °F 45.0 °F 89% 30.24 in 6.0 mi East 5.8 mph - N/A   Clear
7:53 AM 51.1 °F 46.9 °F 86% 30.26 in 5.0 mi ENE 3.5 mph - N/A   Clear
8:53 AM 54.0 °F 48.0 °F 80% 30.27 in 7.0 mi Calm Calm - N/A   Clear
9:53 AM 59.0 °F 45.0 °F 60% 30.27 in 10.0 mi Calm Calm - N/A   Clear
10:53 AM 61.0 °F 37.0 °F 41% 30.28 in 10.0 mi Variable 6.9 mph - N/A   Clear
11:53 AM 64.0 °F 39.0 °F 40% 30.29 in 10.0 mi South 8.1 mph - N/A   Clear
12:53 PM 66.9 °F 30.0 °F 25% 30.26 in 10.0 mi South 10.4 mph - N/A   Clear
1:53 PM 68.0 °F 32.0 °F 26% 30.23 in 10.0 mi South 8.1 mph 17.3 mph N/A   Clear
2:53 PM 70.0 °F 28.9 °F 22% 30.20 in 10.0 mi SSW 10.4 mph 20.7 mph N/A   Clear
3:53 PM 71.1 °F 26.1 °F 19% 30.17 in 10.0 mi SW 9.2 mph - N/A   Clear
4:53 PM 72.0 °F 26.1 °F 18% 30.16 in 10.0 mi SSE 11.5 mph - N/A   Clear
5:53 PM 72.0 °F 28.0 °F 20% 30.15 in 10.0 mi South 10.4 mph - N/A   Clear
6:53 PM 72.0 °F 28.9 °F 20% 30.13 in 10.0 mi SE 8.1 mph - N/A   Clear
7:53 PM 69.1 °F 30.9 °F 24% 30.12 in 10.0 mi SE 6.9 mph - N/A   Clear
8:53 PM 68.0 °F 33.1 °F 27% 30.14 in 10.0 mi SSE 11.5 mph - N/A   Scattered Clouds
9:53 PM 66.9 °F 36.0 °F 32% 30.14 in 10.0 mi SSE 13.8 mph - N/A   Overcast
10:53 PM 66.0 °F 37.9 °F 36% 30.13 in 10.0 mi SSE 12.7 mph - N/A   Partly Cloudy
11:53 PM 64.0 °F 44.1 °F 48% 30.12 in 10.0 mi South 13.8 mph - N/A   Clear